Home > Weather > Oakville > Past weeks

Flag for Canada Past Weather in Oakville, Ontario, Canada — Yesterday and Last 2 Weeks

Now
70 °F

Mild.


Feels Like: 69 °F
Forecast: 69 / 84 °F
Wind: 2 mph from East

Location: Burlington Piers

Current Time: Aug 26, 2016 at 9:54:35 AM

Latest Report: Aug 26, 2016 at 9:00 AM


Visibility: N/A

Pressure: 30.06 "Hg

Humidity: 86%

Dew Point: 66 °F

Location of OakvilleLocation

Past Weather in Oakville — Graph

°F

Oakville Temperature Yesterday

Maximum temperature yesterday: 82 °F (at 2:00 PM)
Minimum temperature yesterday: 71 °F (at 6:00 PM)
Average temperature yesterday: 76 °F

High & Low Weather Summary for the Past Weeks

 TemperatureHumidityPressure
High87 °F (Aug 13, 1:00 PM)93% (Aug 13, 6:00 AM)30.26 "Hg (Aug 13, 6:00 AM)
Low60 °F (Aug 22, 5:00 AM)35% (Aug 22, 5:00 PM)29.57 "Hg (Aug 21, 3:00 AM)
Average75 °F72%29.96 "Hg
* Reported Aug 11 8:00 AM — Aug 26 8:00 AM, Oakville, Weather by CustomWeather, © 2016

Note: Actual official high and low records may vary slightly from our data, if they occured in-between our weather recording intervals... More about our weather records

Advertising

Oakville Weather History for the Previous 24 Hours

Scroll right to see more
 ConditionsComfort  
Time TempWeatherWind HumidityBarometerVisibility
8:00 AM
Fri, Aug 26
71 °FMild.2 mph88%30.05 "HgN/A
7:00 AM70 °FMild.1 mph90%30.04 "HgN/A
6:00 AM70 °FMild.6 mph92%30.03 "HgN/A
5:00 AM69 °FMild.7 mph92%30.00 "HgN/A
4:00 AM70 °FMild.6 mph91%29.98 "HgN/A
3:00 AM71 °FMild.6 mph91%29.97 "HgN/A
2:00 AM72 °FMild.5 mph88%29.96 "HgN/A
1:00 AM73 °FMild.6 mph91%29.94 "HgN/A
12:00 AM73 °FMild.7 mph91%29.93 "HgN/A
11:00 PM
Thu, Aug 25
73 °FMild.8 mph90%29.91 "HgN/A
10:00 PM74 °FMild.6 mph89%29.92 "HgN/A
9:00 PM74 °FMild.5 mph87%29.90 "HgN/A
8:00 PM73 °FMild.6 mph90%29.90 "HgN/A
7:00 PM72 °FMild.6 mph92%29.92 "HgN/A
6:00 PM71 °FMild.9 mph91%29.94 "HgN/A
5:00 PM73 °FMild.13 mph90%29.92 "HgN/A
4:00 PM78 °FWarm.5 mph82%29.90 "HgN/A
3:00 PM82 °FWarm.3 mph69%29.91 "HgN/A
2:00 PM82 °FWarm.6 mph67%29.93 "HgN/A
1:00 PM81 °FWarm.7 mph67%29.92 "HgN/A
12:00 PM80 °FWarm.6 mph64%29.93 "HgN/A
11:00 AM79 °FWarm.7 mph75%29.94 "HgN/A
10:00 AM77 °FWarm.6 mph82%29.93 "HgN/A
9:00 AM76 °FMild.6 mph84%29.92 "HgN/A
Weather by CustomWeather, © 2016

See weather overviewHow to use our weather pages